McAlester, OK

10:37 PM CST on November 11, 2019 (GMT -0600)
McAlester Regional

Weather History for KMLC - August, 2019

Change the Weather History Date:

Tuesday, August 6, 2019

  Actual Average Record
Temperature  
Mean Temperature 84 °F -  
Max Temperature 97 °F 92 °F 110 °F (1956)
Min Temperature 73 °F 70 °F 60 °F (1966)
Cooling Degree Days 19    
Growing Degree Days 34 (Base 50)    
Moisture  
Dew Point 73 °F    
Average Humidity 72    
Maximum Humidity 93    
Minimum Humidity 46    
Precipitation  
Precipitation 0.00 in - - ()
Sea Level Pressure  
Sea Level Pressure 29.90 in    
Wind  
Wind Speed 1 mph (SSW)    
Max Wind Speed 7 mph    
Max Gust Speed -    
Visibility 9 miles    
Events      
Averages and records for this station are not official NWS values.
T = Trace of Precipitation, MM = Missing Value Source: NWS Daily Summary

Daily Weather History Graph

Daily Weather History Graph

Search for Another Location

Airport or City:

Astronomy

Aug. 06, 2019 Rise Set
Actual Time 6:36 AM CDT 8:21 PM CDT
Civil Twilight 6:09 AM CDT 8:48 PM CDT
Nautical Twilight 5:35 AM CDT 9:21 PM CDT
Astronomical Twilight 5:00 AM CDT 9:56 PM CDT
Moon 12:47 PM CDT (8/6) No Moon Set
Length of Visible Light 14h 39m
Length of Day
13h 44m
Waxing Crescent, 39% of the Moon is Illuminated
Aug 6
Waxing Crescent
Aug 7
First Quarter
Aug 15
Full
Aug 23
Last Quarter
Aug 30
New

Hourly Weather History & Observations

Time (CDT) Temp. Heat Index Dew Point Humidity Pressure Visibility Wind Dir Wind Speed Gust Speed Precip Events Conditions
12:53 AM 73.9 °F - 72.0 °F 93% 29.92 in 10.0 mi Calm Calm - N/A   Scattered Clouds
1:53 AM 73.9 °F - 71.1 °F 91% 29.91 in 10.0 mi Calm Calm - N/A   Clear
2:53 AM 73.0 °F - 71.1 °F 93% 29.91 in 8.0 mi Calm Calm - N/A   Clear
3:53 AM 73.0 °F - 71.1 °F 93% 29.91 in 6.0 mi Calm Calm - N/A   Scattered Clouds
4:53 AM 73.0 °F - 71.1 °F 93% 29.92 in 8.0 mi Calm Calm - N/A   Clear
5:53 AM 73.0 °F - 71.1 °F 93% 29.92 in 6.0 mi Calm Calm - N/A   Clear
6:53 AM 73.0 °F - 71.1 °F 93% 29.94 in 3.0 mi Calm Calm - N/A   Partly Cloudy
7:53 AM 78.1 °F - 72.0 °F 81% 29.95 in 8.0 mi Calm Calm - N/A   Scattered Clouds
8:53 AM 82.0 °F 87.4 °F 73.0 °F 74% 29.95 in 10.0 mi South 4.6 mph - N/A   Clear
9:53 AM 84.9 °F 93.3 °F 75.0 °F 72% 29.95 in 10.0 mi SW 6.9 mph - N/A   Clear
10:53 AM 89.1 °F 99.1 °F 75.0 °F 63% 29.95 in 10.0 mi WSW 5.8 mph - N/A   Clear
11:53 AM 91.0 °F 101.6 °F 75.0 °F 59% 29.94 in 10.0 mi SW 4.6 mph - N/A   Partly Cloudy
12:53 PM 91.9 °F 100.7 °F 73.0 °F 54% 29.92 in 10.0 mi Calm Calm - N/A   Scattered Clouds
1:53 PM 95.0 °F 102.5 °F 71.1 °F 46% 29.91 in 10.0 mi Variable 3.5 mph - N/A   Scattered Clouds
2:53 PM 93.0 °F 99.0 °F 70.0 °F 47% 29.89 in 10.0 mi Calm Calm - N/A   Partly Cloudy
3:53 PM 95.0 °F 102.5 °F 71.1 °F 46% 29.88 in 10.0 mi WNW 3.5 mph - N/A   Clear
4:53 PM 91.9 °F 101.3 °F 73.9 °F 55% 29.87 in 10.0 mi Calm Calm - N/A   Partly Cloudy
5:53 PM 95.0 °F 102.5 °F 71.1 °F 46% 29.85 in 10.0 mi Calm Calm - N/A   Clear
6:53 PM 93.9 °F 103.4 °F 73.0 °F 51% 29.84 in 10.0 mi Calm Calm - N/A   Clear
7:53 PM 88.0 °F 103.1 °F 79.0 °F 75% 29.83 in 10.0 mi ESE 3.5 mph - N/A   Clear
8:53 PM 82.0 °F 88.6 °F 75.0 °F 79% 29.86 in 10.0 mi East 3.5 mph - N/A   Clear
9:53 PM 81.0 °F 86.7 °F 75.0 °F 82% 29.88 in 10.0 mi Calm Calm - N/A   Clear
10:53 PM 82.9 °F 88.8 °F 73.0 °F 72% 29.89 in 10.0 mi Calm Calm - N/A   Clear
11:53 PM 81.0 °F 86.7 °F 75.0 °F 82% 29.89 in 10.0 mi Calm Calm - N/A   Clear